STARLINK-33843, 63507

Orbit data source: Space-Track

STARLINK-33843, 63507 is a payload satellite owned by SpaceX/Seattle (US) in LEO that was launched on Mon, 07 Apr 2025 UTC via an FALCON 9 launch vehicle from the Air Force Western Test Range (AFWTR). Payload-class satellites include a variety of spacecraft equipped with specific instruments for various scientific and technological missions. These include communications satellites like Starlink; space stations such as the ISS; scientific satellites like the Hubble; Earth observation satellites from companies like Planet Labs, Umbra, and HawkEye 360; GPS; miniature CubeSats for education and research; and military/defense satellites.

Loading next visibility...
Identifier
63507, 2025-071Q
Orbit
LEO
Country
Flag of USUS
Related business
Manufacturer
SpaceX/Seattle
Mission
Operational Commercial Communications
Bus & Motor
STARLINK V2MO, Unknown motor
Mass
575 kg wet, ~530 kg dry
Launch date (UTC)
2025-04-07 (5 months ago)
Launch vehicle
FALCON 9
Launch site
Air Force Western Test Range (AFWTR)
Object type
Payload
Rocket body
Debris
Shape & HBR
Box + 1 Pan, 14.5 m
Radar Cross Section
41.120 m², Large (>1 m²)

Expand to show TLE details & history
Last TLE update: 2 days ago

TLE from 2 days ago
0 STARLINK-33843
1 63507U 25071Q   25260.30388341  .00021156  00000-0  72434-3 0  9999
2 63507  53.1581 225.2542 0002961  90.0838 270.0502 15.30200298 26200
Epoch: 2025-09-17T07:17Z
TLE epoch observation values (Epoch: 2025-09-17T07:17:35.526Z)
Latitude
-0.00003°
Longitude
119.37439°
Altitude
476.113 km
Speed
7.629 km/s
True Right ascension
15h 01m 01s
True Declination
0° 00' 00"
Sunlit
Object was in daylight at epoch
Visualization orbit readout
Latitude
Unknown
Longitude
Unknown
Altitude
Unknown
Speed
Unknown
Apparent Right ascension
Unknown
Apparent Declination
Unknown
Sunlit
N/A
Visualization observer readout
Local Sidereal Time
21:39:16
Azimuth
Unknown
Elevation
Unknown
Doppler factor
Unknown
Orbital elements
Apogee altitude
477.5 km
Perigee altitude
473.442 km
Semi-major axis
6,853.608 km
Eccentricity
0.0003
Inclination
53.1581°
RAAN
225.2542°
Arg. of periapsis
90.0838°
True anomaly
270.01627°
Mean anomaly
270.0502°
Eccentric anomaly
270.03323°
Mean motion
3.82529 °/min
Orbital period
94.11 mins
BSTAR
0.00072434
Loading maneuver chart data...
Computing Atmospheric mass density...
Loading historical data...
Loading historical data...
Loading historical data...
Loading historical data...
Loading historical data...
Loading historical data...
Loading historical data...

Documentation

Showing up to 5 results
|